ASTRA 2E

Last updated on Mon Sep 15 2025 00:02:48 GMT+0000 (Coordinated Universal Time)

1 39285U 13056A 25257.23169597 .00000138 00000+0 00000+0 0 9995 2 39285 0.0652 336.2385 0002551 205.1401 283.9420 1.00270650 43655
UTC large
Height (km)
Speed (km/s)
/
Latitude / Longitude
Inclination (degrees)
Orbital Period (minutes)
Azimuth
Elevation
Range (km)
Doppler Factor

Next 0 passes for location: London (51.5072 / 0.1276)

Sorry there are no passes over London.